TimePDT,TemperatureF,Dew PointF,Humidity,Sea Level PressureIn,VisibilityMPH,Wind Direction,Wind SpeedMPH,Gust SpeedMPH,PrecipitationIn,Events,Conditions,WindDirDegrees,DateUTC
12:53 AM,55.0,32.0,42,30.01,10.0,NW,5.8,-,N/A,,Clear,320,2013-05-10 07:53:00
1:53 AM,54.0,32.0,43,30.01,10.0,NNW,5.8,-,N/A,,Clear,330,2013-05-10 08:53:00
2:53 AM,54.0,30.9,41,30.03,10.0,NNW,4.6,-,N/A,,Clear,330,2013-05-10 09:53:00
3:53 AM,54.0,30.9,41,30.03,10.0,NNW,4.6,-,N/A,,Clear,340,2013-05-10 10:53:00
4:53 AM,54.0,32.0,43,30.03,10.0,Calm,Calm,-,N/A,,Clear,0,2013-05-10 11:53:00
6:53 AM,55.9,32.0,40,30.07,10.0,NNW,4.6,-,N/A,,Partly Cloudy,330,2013-05-10 13:53:00
7:53 AM,57.9,34.0,41,30.09,10.0,Variable,3.5,-,N/A,,Clear,0,2013-05-10 14:53:00
8:53 AM,55.9,34.0,44,30.10,10.0,Variable,6.9,-,N/A,,Clear,0,2013-05-10 15:53:00
9:53 AM,57.9,32.0,37,30.11,10.0,SE,5.8,-,N/A,,Clear,130,2013-05-10 16:53:00
10:53 AM,59.0,32.0,36,30.11,10.0,Variable,3.5,-,N/A,,Clear,0,2013-05-10 17:53:00
11:53 AM,62.1,33.1,34,30.10,10.0,Calm,Calm,-,N/A,,Clear,0,2013-05-10 18:53:00
12:53 PM,64.0,34.0,33,30.08,10.0,Calm,Calm,-,N/A,,Clear,0,2013-05-10 19:53:00
1:53 PM,64.9,32.0,29,30.07,10.0,Variable,3.5,-,N/A,,Partly Cloudy,0,2013-05-10 20:53:00
2:53 PM,66.0,24.1,20,30.06,10.0,Variable,6.9,-,N/A,,Unknown,0,2013-05-10 21:53:00
3:53 PM,64.9,23.0,20,30.06,10.0,Variable,5.8,-,N/A,,Unknown,0,2013-05-10 22:53:00
4:53 PM,64.9,27.0,24,30.06,10.0,Variable,3.5,-,N/A,,Unknown,0,2013-05-10 23:53:00
5:53 PM,64.9,24.1,21,30.05,10.0,Variable,4.6,-,N/A,,Unknown,0,2013-05-11 00:53:00
6:53 PM,62.1,32.0,32,30.06,10.0,NW,6.9,-,N/A,,Unknown,320,2013-05-11 01:53:00
7:53 PM,59.0,34.0,39,30.07,10.0,NW,4.6,-,N/A,,Clear,320,2013-05-11 02:53:00
8:53 PM,57.0,35.1,44,30.09,10.0,NW,4.6,-,N/A,,Clear,320,2013-05-11 03:53:00
9:53 PM,59.0,35.1,41,30.08,10.0,WNW,4.6,-,N/A,,Clear,290,2013-05-11 04:53:00
10:53 PM,57.9,33.1,39,30.08,10.0,South,4.6,-,N/A,,Clear,180,2013-05-11 05:53:00
11:53 PM,57.0,34.0,42,30.08,10.0,South,4.6,-,N/A,,Clear,180,2013-05-11 06:53:00